Location: Clarion
(42.7316°N, 93.7330°W)
Time: 09:16:45
(UTC+00:00)

Okean 3 Rocket - Pass Details

Date: 22 April 2026
Orbit: 610 x 637 km, 82.5° (Epoch: 17 May)

Event Time Altitude Azimuth Distance (km) Brightness Sun altitude
Rises 10:27:37 0° 345° (NNW) 2,914 7.2 -10.1°
Reaches altitude 10° 10:29:54 10° 340° (NNW) 2,007 6.3 -9.7°
Maximum altitude 10:34:09 46° 267° (W) 850 3.9 -9.0°
Drops below altitude 10° 10:38:24 10° 195° (SSW) 2,007 5.8 -8.3°
Sets 10:40:42 0° 189° (S) 2,913 6.7 -8.0°
